Tracking 29606 objects as of 18-Sep-2024
HD Live streaming from Space Station
objects crossing your sky now

FENGYUN 1C DEB

Track FENGYUN 1C DEB now!
10-day predictions


NORAD ID: 29855
Int'l Code: 1999-025EZ
Perigee: 770.6 km
Apogee: 1,056.0 km
Inclination: 98.2 °
Period: 103.1 minutes
Semi major axis: 7284 km
RCS: 0.043 m2 (small)
Launch date: May 10, 1999
Source: People's Republic of China (PRC)
Launch site: Taiyaun Space Center, China (TSC)

Note: This is SATELLITE DEBRIS
Your satellite tracking list
Your tracking list is empty




NASA's NSSDC Master Catalog

Two Line Element Set (TLE):
1 29855U 99025EZ  24261.96951093  .00007343  00000-0  45445-2 0  9992
2 29855  98.1591 245.4540 0195882 241.1410 187.4421 13.96444235894205
Source of the keplerian elements: AFSPC